Index of /20260504/WXO-DD/model_gdps/15km/12/069
Name Last modified Size Description
Parent Directory -
20260504T12Z_MSC_GDPS_AbsoluteVorticity_IsbL-0200_LatLon0.15_PT069H.grib2 2026-05-04 16:29 1.5M
20260504T12Z_MSC_GDPS_AbsoluteVorticity_IsbL-0250_LatLon0.15_PT069H.grib2 2026-05-04 16:29 1.3M
20260504T12Z_MSC_GDPS_AbsoluteVorticity_IsbL-0500_LatLon0.15_PT069H.grib2 2026-05-04 16:29 1.2M
20260504T12Z_MSC_GDPS_AbsoluteVorticity_IsbL-0700_LatLon0.15_PT069H.grib2 2026-05-04 16:29 1.3M
20260504T12Z_MSC_GDPS_AbsoluteVorticity_IsbL-0850_LatLon0.15_PT069H.grib2 2026-05-04 16:29 1.6M
20260504T12Z_MSC_GDPS_AirTemp_AGL-120m_LatLon0.15_PT069H.grib2 2026-05-04 16:29 902K
20260504T12Z_MSC_GDPS_AirTemp_AGL-2m_LatLon0.15_PT069H.grib2 2026-05-04 16:29 1.0M
20260504T12Z_MSC_GDPS_AirTemp_AGL-40m_LatLon0.15_PT069H.grib2 2026-05-04 16:29 803K
20260504T12Z_MSC_GDPS_AirTemp_AGL-80m_LatLon0.15_PT069H.grib2 2026-05-04 16:29 910K
20260504T12Z_MSC_GDPS_AirTemp_IsbL-0001_LatLon0.15_PT069H.grib2 2026-05-04 16:29 660K
20260504T12Z_MSC_GDPS_AirTemp_IsbL-0005_LatLon0.15_PT069H.grib2 2026-05-04 16:29 695K
20260504T12Z_MSC_GDPS_AirTemp_IsbL-0010_LatLon0.15_PT069H.grib2 2026-05-04 16:29 695K
20260504T12Z_MSC_GDPS_AirTemp_IsbL-0020_LatLon0.15_PT069H.grib2 2026-05-04 16:29 785K
20260504T12Z_MSC_GDPS_AirTemp_IsbL-0030_LatLon0.15_PT069H.grib2 2026-05-04 16:29 835K
20260504T12Z_MSC_GDPS_AirTemp_IsbL-0050_LatLon0.15_PT069H.grib2 2026-05-04 16:29 803K
20260504T12Z_MSC_GDPS_AirTemp_IsbL-0100_LatLon0.15_PT069H.grib2 2026-05-04 16:29 954K
20260504T12Z_MSC_GDPS_AirTemp_IsbL-0150_LatLon0.15_PT069H.grib2 2026-05-04 16:29 1.0M
20260504T12Z_MSC_GDPS_AirTemp_IsbL-0175_LatLon0.15_PT069H.grib2 2026-05-04 16:29 960K
20260504T12Z_MSC_GDPS_AirTemp_IsbL-0200_LatLon0.15_PT069H.grib2 2026-05-04 16:29 973K
20260504T12Z_MSC_GDPS_AirTemp_IsbL-0225_LatLon0.15_PT069H.grib2 2026-05-04 16:29 1.0M
20260504T12Z_MSC_GDPS_AirTemp_IsbL-0250_LatLon0.15_PT069H.grib2 2026-05-04 16:29 1.0M
20260504T12Z_MSC_GDPS_AirTemp_IsbL-0275_LatLon0.15_PT069H.grib2 2026-05-04 16:29 1.0M
20260504T12Z_MSC_GDPS_AirTemp_IsbL-0300_LatLon0.15_PT069H.grib2 2026-05-04 16:29 1.0M
20260504T12Z_MSC_GDPS_AirTemp_IsbL-0350_LatLon0.15_PT069H.grib2 2026-05-04 16:29 927K
20260504T12Z_MSC_GDPS_AirTemp_IsbL-0400_LatLon0.15_PT069H.grib2 2026-05-04 16:29 938K
20260504T12Z_MSC_GDPS_AirTemp_IsbL-0450_LatLon0.15_PT069H.grib2 2026-05-04 16:29 960K
20260504T12Z_MSC_GDPS_AirTemp_IsbL-0500_LatLon0.15_PT069H.grib2 2026-05-04 16:29 1.0M
20260504T12Z_MSC_GDPS_AirTemp_IsbL-0550_LatLon0.15_PT069H.grib2 2026-05-04 16:29 798K
20260504T12Z_MSC_GDPS_AirTemp_IsbL-0600_LatLon0.15_PT069H.grib2 2026-05-04 16:29 890K
20260504T12Z_MSC_GDPS_AirTemp_IsbL-0650_LatLon0.15_PT069H.grib2 2026-05-04 16:29 921K
20260504T12Z_MSC_GDPS_AirTemp_IsbL-0700_LatLon0.15_PT069H.grib2 2026-05-04 16:29 958K
20260504T12Z_MSC_GDPS_AirTemp_IsbL-0750_LatLon0.15_PT069H.grib2 2026-05-04 16:29 1.0M
20260504T12Z_MSC_GDPS_AirTemp_IsbL-0800_LatLon0.15_PT069H.grib2 2026-05-04 16:29 1.1M
20260504T12Z_MSC_GDPS_AirTemp_IsbL-0850_LatLon0.15_PT069H.grib2 2026-05-04 16:29 1.1M
20260504T12Z_MSC_GDPS_AirTemp_IsbL-0875_LatLon0.15_PT069H.grib2 2026-05-04 16:29 1.2M
20260504T12Z_MSC_GDPS_AirTemp_IsbL-0900_LatLon0.15_PT069H.grib2 2026-05-04 16:29 1.2M
20260504T12Z_MSC_GDPS_AirTemp_IsbL-0925_LatLon0.15_PT069H.grib2 2026-05-04 16:29 1.1M
20260504T12Z_MSC_GDPS_AirTemp_IsbL-0950_LatLon0.15_PT069H.grib2 2026-05-04 16:29 1.1M
20260504T12Z_MSC_GDPS_AirTemp_IsbL-0970_LatLon0.15_PT069H.grib2 2026-05-04 16:29 1.1M
20260504T12Z_MSC_GDPS_AirTemp_IsbL-0985_LatLon0.15_PT069H.grib2 2026-05-04 16:29 1.1M
20260504T12Z_MSC_GDPS_AirTemp_IsbL-1000_LatLon0.15_PT069H.grib2 2026-05-04 16:29 898K
20260504T12Z_MSC_GDPS_AirTemp_IsbL-1015_LatLon0.15_PT069H.grib2 2026-05-04 16:29 855K
20260504T12Z_MSC_GDPS_Albedo_Sfc_LatLon0.15_PT069H.grib2 2026-05-04 16:29 242K
20260504T12Z_MSC_GDPS_CAPE_Sfc_LatLon0.15_PT069H.grib2 2026-05-04 16:29 4.1M
20260504T12Z_MSC_GDPS_CIN_Sfc_LatLon0.15_PT069H.grib2 2026-05-04 16:29 3.0M
20260504T12Z_MSC_GDPS_CloudWater_EAtm_LatLon0.15_PT069H.grib2 2026-05-04 16:29 539K
20260504T12Z_MSC_GDPS_ConvectivePrecip-Accum_Sfc_LatLon0.15_PT069H.grib2 2026-05-04 16:29 3.2M
20260504T12Z_MSC_GDPS_DewPointDepression_AGL-2m_LatLon0.15_PT069H.grib2 2026-05-04 16:29 761K
20260504T12Z_MSC_GDPS_DewPointDepression_IsbL-0010_LatLon0.15_PT069H.grib2 2026-05-04 16:29 78K
20260504T12Z_MSC_GDPS_DewPointDepression_IsbL-0020_LatLon0.15_PT069H.grib2 2026-05-04 16:29 69K
20260504T12Z_MSC_GDPS_DewPointDepression_IsbL-0030_LatLon0.15_PT069H.grib2 2026-05-04 16:29 89K
20260504T12Z_MSC_GDPS_DewPointDepression_IsbL-0050_LatLon0.15_PT069H.grib2 2026-05-04 16:29 378K
20260504T12Z_MSC_GDPS_DewPointDepression_IsbL-0100_LatLon0.15_PT069H.grib2 2026-05-04 16:29 398K
20260504T12Z_MSC_GDPS_DewPointDepression_IsbL-0150_LatLon0.15_PT069H.grib2 2026-05-04 16:29 491K
20260504T12Z_MSC_GDPS_DewPointDepression_IsbL-0175_LatLon0.15_PT069H.grib2 2026-05-04 16:29 591K
20260504T12Z_MSC_GDPS_DewPointDepression_IsbL-0200_LatLon0.15_PT069H.grib2 2026-05-04 16:29 695K
20260504T12Z_MSC_GDPS_DewPointDepression_IsbL-0225_LatLon0.15_PT069H.grib2 2026-05-04 16:29 775K
20260504T12Z_MSC_GDPS_DewPointDepression_IsbL-0250_LatLon0.15_PT069H.grib2 2026-05-04 16:29 862K
20260504T12Z_MSC_GDPS_DewPointDepression_IsbL-0275_LatLon0.15_PT069H.grib2 2026-05-04 16:29 885K
20260504T12Z_MSC_GDPS_DewPointDepression_IsbL-0300_LatLon0.15_PT069H.grib2 2026-05-04 16:29 927K
20260504T12Z_MSC_GDPS_DewPointDepression_IsbL-0350_LatLon0.15_PT069H.grib2 2026-05-04 16:29 957K
20260504T12Z_MSC_GDPS_DewPointDepression_IsbL-0400_LatLon0.15_PT069H.grib2 2026-05-04 16:29 1.0M
20260504T12Z_MSC_GDPS_DewPointDepression_IsbL-0450_LatLon0.15_PT069H.grib2 2026-05-04 16:29 1.0M
20260504T12Z_MSC_GDPS_DewPointDepression_IsbL-0500_LatLon0.15_PT069H.grib2 2026-05-04 16:29 1.0M
20260504T12Z_MSC_GDPS_DewPointDepression_IsbL-0550_LatLon0.15_PT069H.grib2 2026-05-04 16:29 1.0M
20260504T12Z_MSC_GDPS_DewPointDepression_IsbL-0600_LatLon0.15_PT069H.grib2 2026-05-04 16:29 1.0M
20260504T12Z_MSC_GDPS_DewPointDepression_IsbL-0650_LatLon0.15_PT069H.grib2 2026-05-04 16:29 1.0M
20260504T12Z_MSC_GDPS_DewPointDepression_IsbL-0700_LatLon0.15_PT069H.grib2 2026-05-04 16:29 1.1M
20260504T12Z_MSC_GDPS_DewPointDepression_IsbL-0750_LatLon0.15_PT069H.grib2 2026-05-04 16:29 1.1M
20260504T12Z_MSC_GDPS_DewPointDepression_IsbL-0800_LatLon0.15_PT069H.grib2 2026-05-04 16:29 1.2M
20260504T12Z_MSC_GDPS_DewPointDepression_IsbL-0850_LatLon0.15_PT069H.grib2 2026-05-04 16:29 1.2M
20260504T12Z_MSC_GDPS_DewPointDepression_IsbL-0875_LatLon0.15_PT069H.grib2 2026-05-04 16:29 1.1M
20260504T12Z_MSC_GDPS_DewPointDepression_IsbL-0900_LatLon0.15_PT069H.grib2 2026-05-04 16:29 1.1M
20260504T12Z_MSC_GDPS_DewPointDepression_IsbL-0925_LatLon0.15_PT069H.grib2 2026-05-04 16:29 1.0M
20260504T12Z_MSC_GDPS_DewPointDepression_IsbL-0950_LatLon0.15_PT069H.grib2 2026-05-04 16:29 1.0M
20260504T12Z_MSC_GDPS_DewPointDepression_IsbL-0970_LatLon0.15_PT069H.grib2 2026-05-04 16:29 1.0M
20260504T12Z_MSC_GDPS_DewPointDepression_IsbL-0985_LatLon0.15_PT069H.grib2 2026-05-04 16:29 1.0M
20260504T12Z_MSC_GDPS_DewPointDepression_IsbL-1000_LatLon0.15_PT069H.grib2 2026-05-04 16:29 1.0M
20260504T12Z_MSC_GDPS_DewPointDepression_IsbL-1015_LatLon0.15_PT069H.grib2 2026-05-04 16:29 916K
20260504T12Z_MSC_GDPS_DewPoint_AGL-2m_LatLon0.15_PT069H.grib2 2026-05-04 16:29 611K
20260504T12Z_MSC_GDPS_DownwardLongwaveRadiationFlux-Accum_Sfc_LatLon0.15_PT069H.grib2 2026-05-04 16:29 900K
20260504T12Z_MSC_GDPS_DownwardShortwaveRadiationFlux-Accum_NTAtm_LatLon0.15_PT069H.grib2 2026-05-04 16:29 183K
20260504T12Z_MSC_GDPS_DownwardShortwaveRadiationFlux-Accum_Sfc_LatLon0.15_PT069H.grib2 2026-05-04 16:29 1.1M
20260504T12Z_MSC_GDPS_FreezingRain-Accum1h_Sfc_LatLon0.15_PT069H.grib2 2026-05-04 16:29 37K
20260504T12Z_MSC_GDPS_FreezingRain-Accum3h_Sfc_LatLon0.15_PT069H.grib2 2026-05-04 16:29 48K
20260504T12Z_MSC_GDPS_FreezingRain-Accum_Sfc_LatLon0.15_PT069H.grib2 2026-05-04 16:29 281K
20260504T12Z_MSC_GDPS_GeopotentialHeight_IsbL-0001_LatLon0.15_PT069H.grib2 2026-05-04 16:29 436K
20260504T12Z_MSC_GDPS_GeopotentialHeight_IsbL-0005_LatLon0.15_PT069H.grib2 2026-05-04 16:29 483K
20260504T12Z_MSC_GDPS_GeopotentialHeight_IsbL-0010_LatLon0.15_PT069H.grib2 2026-05-04 16:29 471K
20260504T12Z_MSC_GDPS_GeopotentialHeight_IsbL-0020_LatLon0.15_PT069H.grib2 2026-05-04 16:29 415K
20260504T12Z_MSC_GDPS_GeopotentialHeight_IsbL-0030_LatLon0.15_PT069H.grib2 2026-05-04 16:29 418K
20260504T12Z_MSC_GDPS_GeopotentialHeight_IsbL-0050_LatLon0.15_PT069H.grib2 2026-05-04 16:29 572K
20260504T12Z_MSC_GDPS_GeopotentialHeight_IsbL-0100_LatLon0.15_PT069H.grib2 2026-05-04 16:29 605K
20260504T12Z_MSC_GDPS_GeopotentialHeight_IsbL-0150_LatLon0.15_PT069H.grib2 2026-05-04 16:29 628K
20260504T12Z_MSC_GDPS_GeopotentialHeight_IsbL-0175_LatLon0.15_PT069H.grib2 2026-05-04 16:29 632K
20260504T12Z_MSC_GDPS_GeopotentialHeight_IsbL-0200_LatLon0.15_PT069H.grib2 2026-05-04 16:29 635K
20260504T12Z_MSC_GDPS_GeopotentialHeight_IsbL-0225_LatLon0.15_PT069H.grib2 2026-05-04 16:29 637K
20260504T12Z_MSC_GDPS_GeopotentialHeight_IsbL-0250_LatLon0.15_PT069H.grib2 2026-05-04 16:29 637K
20260504T12Z_MSC_GDPS_GeopotentialHeight_IsbL-0275_LatLon0.15_PT069H.grib2 2026-05-04 16:29 639K
20260504T12Z_MSC_GDPS_GeopotentialHeight_IsbL-0300_LatLon0.15_PT069H.grib2 2026-05-04 16:29 639K
20260504T12Z_MSC_GDPS_GeopotentialHeight_IsbL-0350_LatLon0.15_PT069H.grib2 2026-05-04 16:29 631K
20260504T12Z_MSC_GDPS_GeopotentialHeight_IsbL-0400_LatLon0.15_PT069H.grib2 2026-05-04 16:29 622K
20260504T12Z_MSC_GDPS_GeopotentialHeight_IsbL-0450_LatLon0.15_PT069H.grib2 2026-05-04 16:29 543K
20260504T12Z_MSC_GDPS_GeopotentialHeight_IsbL-0500_LatLon0.15_PT069H.grib2 2026-05-04 16:29 533K
20260504T12Z_MSC_GDPS_GeopotentialHeight_IsbL-0550_LatLon0.15_PT069H.grib2 2026-05-04 16:29 695K
20260504T12Z_MSC_GDPS_GeopotentialHeight_IsbL-0600_LatLon0.15_PT069H.grib2 2026-05-04 16:29 689K
20260504T12Z_MSC_GDPS_GeopotentialHeight_IsbL-0650_LatLon0.15_PT069H.grib2 2026-05-04 16:29 690K
20260504T12Z_MSC_GDPS_GeopotentialHeight_IsbL-0700_LatLon0.15_PT069H.grib2 2026-05-04 16:29 688K
20260504T12Z_MSC_GDPS_GeopotentialHeight_IsbL-0750_LatLon0.15_PT069H.grib2 2026-05-04 16:29 693K
20260504T12Z_MSC_GDPS_GeopotentialHeight_IsbL-0800_LatLon0.15_PT069H.grib2 2026-05-04 16:29 707K
20260504T12Z_MSC_GDPS_GeopotentialHeight_IsbL-0850_LatLon0.15_PT069H.grib2 2026-05-04 16:29 713K
20260504T12Z_MSC_GDPS_GeopotentialHeight_IsbL-0875_LatLon0.15_PT069H.grib2 2026-05-04 16:29 722K
20260504T12Z_MSC_GDPS_GeopotentialHeight_IsbL-0900_LatLon0.15_PT069H.grib2 2026-05-04 16:29 723K
20260504T12Z_MSC_GDPS_GeopotentialHeight_IsbL-0925_LatLon0.15_PT069H.grib2 2026-05-04 16:29 729K
20260504T12Z_MSC_GDPS_GeopotentialHeight_IsbL-0950_LatLon0.15_PT069H.grib2 2026-05-04 16:29 739K
20260504T12Z_MSC_GDPS_GeopotentialHeight_IsbL-0970_LatLon0.15_PT069H.grib2 2026-05-04 16:29 750K
20260504T12Z_MSC_GDPS_GeopotentialHeight_IsbL-0985_LatLon0.15_PT069H.grib2 2026-05-04 16:29 765K
20260504T12Z_MSC_GDPS_GeopotentialHeight_IsbL-1000_LatLon0.15_PT069H.grib2 2026-05-04 16:29 784K
20260504T12Z_MSC_GDPS_GeopotentialHeight_IsbL-1015_LatLon0.15_PT069H.grib2 2026-05-04 16:29 807K
20260504T12Z_MSC_GDPS_IcePellets-Accum1h_Sfc_LatLon0.15_PT069H.grib2 2026-05-04 16:29 6.5K
20260504T12Z_MSC_GDPS_IcePellets-Accum3h_Sfc_LatLon0.15_PT069H.grib2 2026-05-04 16:29 9.2K
20260504T12Z_MSC_GDPS_IcePellets-Accum_Sfc_LatLon0.15_PT069H.grib2 2026-05-04 16:29 79K
20260504T12Z_MSC_GDPS_KIndex_Sfc_LatLon0.15_PT069H.grib2 2026-05-04 16:29 6.5M
20260504T12Z_MSC_GDPS_LatentHeatNetFlux_Sfc_LatLon0.15_PT069H.grib2 2026-05-04 16:29 737K
20260504T12Z_MSC_GDPS_LiftedIndex-MU-VT_IsbL-0500_LatLon0.15_PT069H.grib2 2026-05-04 16:29 5.4M
20260504T12Z_MSC_GDPS_NetLongwaveRadiationFlux-Accum_Sfc_LatLon0.15_PT069H.grib2 2026-05-04 16:29 962K
20260504T12Z_MSC_GDPS_NetShortwaveRadiationFlux-Accum_Sfc_LatLon0.15_PT069H.grib2 2026-05-04 16:29 1.1M
20260504T12Z_MSC_GDPS_O3MixingRatio_Sfc_LatLon0.15_PT069H.grib2 2026-05-04 17:17 2.2M
20260504T12Z_MSC_GDPS_O3_EAtm_LatLon0.15_PT069H.grib2 2026-05-04 17:17 2.4M
20260504T12Z_MSC_GDPS_PlanetaryBoundaryLayerHeight_Sfc_LatLon0.15_PT069H.grib2 2026-05-04 16:29 2.5M
20260504T12Z_MSC_GDPS_Precip-Accum1h_Sfc_LatLon0.15_PT069H.grib2 2026-05-04 16:29 3.3M
20260504T12Z_MSC_GDPS_Precip-Accum3h_Sfc_LatLon0.15_PT069H.grib2 2026-05-04 16:29 3.6M
20260504T12Z_MSC_GDPS_Precip-Accum_Sfc_LatLon0.15_PT069H.grib2 2026-05-04 16:29 4.8M
20260504T12Z_MSC_GDPS_PrecipRate_Sfc_LatLon0.15_PT069H.grib2 2026-05-04 16:29 3.1M
20260504T12Z_MSC_GDPS_PrecipType-Instant_Sfc_LatLon0.15_PT069H.grib2 2026-05-04 16:29 1.6M
20260504T12Z_MSC_GDPS_Pressure_MSL_LatLon0.15_PT069H.grib2 2026-05-04 16:29 719K
20260504T12Z_MSC_GDPS_Pressure_Sfc_LatLon0.15_PT069H.grib2 2026-05-04 16:29 1.1M
20260504T12Z_MSC_GDPS_RadiativeTemp_Sfc_LatLon0.15_PT069H.grib2 2026-05-04 16:29 498K
20260504T12Z_MSC_GDPS_Rain-Accum1h_Sfc_LatLon0.15_PT069H.grib2 2026-05-04 16:29 1.7M
20260504T12Z_MSC_GDPS_Rain-Accum3h_Sfc_LatLon0.15_PT069H.grib2 2026-05-04 16:29 1.7M
20260504T12Z_MSC_GDPS_Rain-Accum_Sfc_LatLon0.15_PT069H.grib2 2026-05-04 16:29 3.7M
20260504T12Z_MSC_GDPS_RelativeHumidity_AGL-2m_LatLon0.15_PT069H.grib2 2026-05-04 16:29 1.1M
20260504T12Z_MSC_GDPS_RelativeHumidity_IsbL-0010_LatLon0.15_PT069H.grib2 2026-05-04 16:29 210K
20260504T12Z_MSC_GDPS_RelativeHumidity_IsbL-0020_LatLon0.15_PT069H.grib2 2026-05-04 16:29 168K
20260504T12Z_MSC_GDPS_RelativeHumidity_IsbL-0030_LatLon0.15_PT069H.grib2 2026-05-04 16:29 269K
20260504T12Z_MSC_GDPS_RelativeHumidity_IsbL-0050_LatLon0.15_PT069H.grib2 2026-05-04 16:29 334K
20260504T12Z_MSC_GDPS_RelativeHumidity_IsbL-0100_LatLon0.15_PT069H.grib2 2026-05-04 16:29 512K
20260504T12Z_MSC_GDPS_RelativeHumidity_IsbL-0150_LatLon0.15_PT069H.grib2 2026-05-04 16:29 685K
20260504T12Z_MSC_GDPS_RelativeHumidity_IsbL-0175_LatLon0.15_PT069H.grib2 2026-05-04 16:29 799K
20260504T12Z_MSC_GDPS_RelativeHumidity_IsbL-0200_LatLon0.15_PT069H.grib2 2026-05-04 16:29 712K
20260504T12Z_MSC_GDPS_RelativeHumidity_IsbL-0225_LatLon0.15_PT069H.grib2 2026-05-04 16:29 796K
20260504T12Z_MSC_GDPS_RelativeHumidity_IsbL-0250_LatLon0.15_PT069H.grib2 2026-05-04 16:29 863K
20260504T12Z_MSC_GDPS_RelativeHumidity_IsbL-0275_LatLon0.15_PT069H.grib2 2026-05-04 16:29 884K
20260504T12Z_MSC_GDPS_RelativeHumidity_IsbL-0300_LatLon0.15_PT069H.grib2 2026-05-04 16:29 925K
20260504T12Z_MSC_GDPS_RelativeHumidity_IsbL-0350_LatLon0.15_PT069H.grib2 2026-05-04 16:29 946K
20260504T12Z_MSC_GDPS_RelativeHumidity_IsbL-0400_LatLon0.15_PT069H.grib2 2026-05-04 16:29 970K
20260504T12Z_MSC_GDPS_RelativeHumidity_IsbL-0450_LatLon0.15_PT069H.grib2 2026-05-04 16:29 1.0M
20260504T12Z_MSC_GDPS_RelativeHumidity_IsbL-0500_LatLon0.15_PT069H.grib2 2026-05-04 16:29 1.0M
20260504T12Z_MSC_GDPS_RelativeHumidity_IsbL-0550_LatLon0.15_PT069H.grib2 2026-05-04 16:29 1.1M
20260504T12Z_MSC_GDPS_RelativeHumidity_IsbL-0600_LatLon0.15_PT069H.grib2 2026-05-04 16:29 1.1M
20260504T12Z_MSC_GDPS_RelativeHumidity_IsbL-0650_LatLon0.15_PT069H.grib2 2026-05-04 16:29 1.1M
20260504T12Z_MSC_GDPS_RelativeHumidity_IsbL-0700_LatLon0.15_PT069H.grib2 2026-05-04 16:29 1.1M
20260504T12Z_MSC_GDPS_RelativeHumidity_IsbL-0750_LatLon0.15_PT069H.grib2 2026-05-04 16:29 1.2M
20260504T12Z_MSC_GDPS_RelativeHumidity_IsbL-0800_LatLon0.15_PT069H.grib2 2026-05-04 16:29 1.2M
20260504T12Z_MSC_GDPS_RelativeHumidity_IsbL-0850_LatLon0.15_PT069H.grib2 2026-05-04 16:29 1.3M
20260504T12Z_MSC_GDPS_RelativeHumidity_IsbL-0875_LatLon0.15_PT069H.grib2 2026-05-04 16:29 1.3M
20260504T12Z_MSC_GDPS_RelativeHumidity_IsbL-0900_LatLon0.15_PT069H.grib2 2026-05-04 16:29 1.2M
20260504T12Z_MSC_GDPS_RelativeHumidity_IsbL-0925_LatLon0.15_PT069H.grib2 2026-05-04 16:29 1.2M
20260504T12Z_MSC_GDPS_RelativeHumidity_IsbL-0950_LatLon0.15_PT069H.grib2 2026-05-04 16:29 1.2M
20260504T12Z_MSC_GDPS_RelativeHumidity_IsbL-0970_LatLon0.15_PT069H.grib2 2026-05-04 16:29 1.2M
20260504T12Z_MSC_GDPS_RelativeHumidity_IsbL-0985_LatLon0.15_PT069H.grib2 2026-05-04 16:29 1.1M
20260504T12Z_MSC_GDPS_RelativeHumidity_IsbL-1000_LatLon0.15_PT069H.grib2 2026-05-04 16:29 1.1M
20260504T12Z_MSC_GDPS_RelativeHumidity_IsbL-1015_LatLon0.15_PT069H.grib2 2026-05-04 16:29 1.0M
20260504T12Z_MSC_GDPS_RelativeVorticity_IsbL-0200_LatLon0.15_PT069H.grib2 2026-05-04 16:29 1.5M
20260504T12Z_MSC_GDPS_RelativeVorticity_IsbL-0250_LatLon0.15_PT069H.grib2 2026-05-04 16:29 1.3M
20260504T12Z_MSC_GDPS_RelativeVorticity_IsbL-0500_LatLon0.15_PT069H.grib2 2026-05-04 16:29 1.2M
20260504T12Z_MSC_GDPS_RelativeVorticity_IsbL-0700_LatLon0.15_PT069H.grib2 2026-05-04 16:29 1.3M
20260504T12Z_MSC_GDPS_RelativeVorticity_IsbL-0850_LatLon0.15_PT069H.grib2 2026-05-04 16:29 1.6M
20260504T12Z_MSC_GDPS_Runoff-Accum_Sfc_LatLon0.15_PT069H.grib2 2026-05-04 16:29 106K
20260504T12Z_MSC_GDPS_SensibleHeatNetFlux_Sfc_LatLon0.15_PT069H.grib2 2026-05-04 16:29 496K
20260504T12Z_MSC_GDPS_ShowalterIndex_IsbL-0500_LatLon0.15_PT069H.grib2 2026-05-04 16:29 6.2M
20260504T12Z_MSC_GDPS_Snow-Accum1h_Sfc_LatLon0.15_PT069H.grib2 2026-05-04 16:29 1.3M
20260504T12Z_MSC_GDPS_Snow-Accum3h_Sfc_LatLon0.15_PT069H.grib2 2026-05-04 16:29 1.2M
20260504T12Z_MSC_GDPS_Snow-Accum_Sfc_LatLon0.15_PT069H.grib2 2026-05-04 16:29 1.9M
20260504T12Z_MSC_GDPS_SnowDensity_Sfc_LatLon0.15_PT069H.grib2 2026-05-04 16:29 258K
20260504T12Z_MSC_GDPS_SnowDepth_Sfc_LatLon0.15_PT069H.grib2 2026-05-04 16:29 1.7M
20260504T12Z_MSC_GDPS_SoilTemp_DBS-0to10cm_LatLon0.15_PT069H.grib2 2026-05-04 16:29 510K
20260504T12Z_MSC_GDPS_SoilTemp_Sfc_LatLon0.15_PT069H.grib2 2026-05-04 16:29 583K
20260504T12Z_MSC_GDPS_SoilVolumetricIceContent_Sfc_LatLon0.15_PT069H.grib2 2026-05-04 16:29 186K
20260504T12Z_MSC_GDPS_SoilVolumetricWaterContent_DBS-0to10cm_LatLon0.15_PT069H.grib2 2026-05-04 16:29 595K
20260504T12Z_MSC_GDPS_SoilVolumetricWaterContent_DBS-0to1cm_LatLon0.15_PT069H.grib2 2026-05-04 16:29 656K
20260504T12Z_MSC_GDPS_SpecificHumidity_AGL-120m_LatLon0.15_PT069H.grib2 2026-05-04 16:29 1.1M
20260504T12Z_MSC_GDPS_SpecificHumidity_AGL-2m_LatLon0.15_PT069H.grib2 2026-05-04 16:29 1.2M
20260504T12Z_MSC_GDPS_SpecificHumidity_AGL-40m_LatLon0.15_PT069H.grib2 2026-05-04 16:29 1.1M
20260504T12Z_MSC_GDPS_SpecificHumidity_AGL-80m_LatLon0.15_PT069H.grib2 2026-05-04 16:29 1.1M
20260504T12Z_MSC_GDPS_SpecificHumidity_IsbL-0001_LatLon0.15_PT069H.grib2 2026-05-04 16:29 1.3M
20260504T12Z_MSC_GDPS_SpecificHumidity_IsbL-0005_LatLon0.15_PT069H.grib2 2026-05-04 16:29 1.2M
20260504T12Z_MSC_GDPS_SpecificHumidity_IsbL-0010_LatLon0.15_PT069H.grib2 2026-05-04 16:29 1.3M
20260504T12Z_MSC_GDPS_SpecificHumidity_IsbL-0020_LatLon0.15_PT069H.grib2 2026-05-04 16:29 1.3M
20260504T12Z_MSC_GDPS_SpecificHumidity_IsbL-0030_LatLon0.15_PT069H.grib2 2026-05-04 16:29 1.3M
20260504T12Z_MSC_GDPS_SpecificHumidity_IsbL-0050_LatLon0.15_PT069H.grib2 2026-05-04 16:29 1.3M
20260504T12Z_MSC_GDPS_SpecificHumidity_IsbL-0100_LatLon0.15_PT069H.grib2 2026-05-04 16:29 1.3M
20260504T12Z_MSC_GDPS_SpecificHumidity_IsbL-0150_LatLon0.15_PT069H.grib2 2026-05-04 16:29 1.0M
20260504T12Z_MSC_GDPS_SpecificHumidity_IsbL-0175_LatLon0.15_PT069H.grib2 2026-05-04 16:29 1.3M
20260504T12Z_MSC_GDPS_SpecificHumidity_IsbL-0200_LatLon0.15_PT069H.grib2 2026-05-04 16:29 1.3M
20260504T12Z_MSC_GDPS_SpecificHumidity_IsbL-0225_LatLon0.15_PT069H.grib2 2026-05-04 16:29 1.3M
20260504T12Z_MSC_GDPS_SpecificHumidity_IsbL-0250_LatLon0.15_PT069H.grib2 2026-05-04 16:29 1.5M
20260504T12Z_MSC_GDPS_SpecificHumidity_IsbL-0275_LatLon0.15_PT069H.grib2 2026-05-04 16:29 1.3M
20260504T12Z_MSC_GDPS_SpecificHumidity_IsbL-0300_LatLon0.15_PT069H.grib2 2026-05-04 16:29 1.2M
20260504T12Z_MSC_GDPS_SpecificHumidity_IsbL-0350_LatLon0.15_PT069H.grib2 2026-05-04 16:29 1.2M
20260504T12Z_MSC_GDPS_SpecificHumidity_IsbL-0400_LatLon0.15_PT069H.grib2 2026-05-04 16:29 1.5M
20260504T12Z_MSC_GDPS_SpecificHumidity_IsbL-0450_LatLon0.15_PT069H.grib2 2026-05-04 16:29 1.6M
20260504T12Z_MSC_GDPS_SpecificHumidity_IsbL-0500_LatLon0.15_PT069H.grib2 2026-05-04 16:29 1.4M
20260504T12Z_MSC_GDPS_SpecificHumidity_IsbL-0550_LatLon0.15_PT069H.grib2 2026-05-04 16:29 1.6M
20260504T12Z_MSC_GDPS_SpecificHumidity_IsbL-0600_LatLon0.15_PT069H.grib2 2026-05-04 16:29 1.7M
20260504T12Z_MSC_GDPS_SpecificHumidity_IsbL-0650_LatLon0.15_PT069H.grib2 2026-05-04 16:29 1.5M
20260504T12Z_MSC_GDPS_SpecificHumidity_IsbL-0700_LatLon0.15_PT069H.grib2 2026-05-04 16:29 1.6M
20260504T12Z_MSC_GDPS_SpecificHumidity_IsbL-0750_LatLon0.15_PT069H.grib2 2026-05-04 16:29 1.7M
20260504T12Z_MSC_GDPS_SpecificHumidity_IsbL-0800_LatLon0.15_PT069H.grib2 2026-05-04 16:29 1.9M
20260504T12Z_MSC_GDPS_SpecificHumidity_IsbL-0850_LatLon0.15_PT069H.grib2 2026-05-04 16:29 2.0M
20260504T12Z_MSC_GDPS_SpecificHumidity_IsbL-0875_LatLon0.15_PT069H.grib2 2026-05-04 16:29 2.0M
20260504T12Z_MSC_GDPS_SpecificHumidity_IsbL-0900_LatLon0.15_PT069H.grib2 2026-05-04 16:29 1.6M
20260504T12Z_MSC_GDPS_SpecificHumidity_IsbL-0925_LatLon0.15_PT069H.grib2 2026-05-04 16:29 1.6M
20260504T12Z_MSC_GDPS_SpecificHumidity_IsbL-0950_LatLon0.15_PT069H.grib2 2026-05-04 16:29 1.6M
20260504T12Z_MSC_GDPS_SpecificHumidity_IsbL-0970_LatLon0.15_PT069H.grib2 2026-05-04 16:29 1.5M
20260504T12Z_MSC_GDPS_SpecificHumidity_IsbL-0985_LatLon0.15_PT069H.grib2 2026-05-04 16:29 1.5M
20260504T12Z_MSC_GDPS_SpecificHumidity_IsbL-1000_LatLon0.15_PT069H.grib2 2026-05-04 16:29 1.5M
20260504T12Z_MSC_GDPS_SpecificHumidity_IsbL-1015_LatLon0.15_PT069H.grib2 2026-05-04 16:29 1.5M
20260504T12Z_MSC_GDPS_SpecificHumidity_Sfc_LatLon0.15_PT069H.grib2 2026-05-04 16:29 682K
20260504T12Z_MSC_GDPS_Thickness_IsbL-0850to0700_LatLon0.15_PT069H.grib2 2026-05-04 16:29 469K
20260504T12Z_MSC_GDPS_Thickness_IsbL-1000to0500_LatLon0.15_PT069H.grib2 2026-05-04 16:29 370K
20260504T12Z_MSC_GDPS_Thickness_IsbL-1000to0850_LatLon0.15_PT069H.grib2 2026-05-04 16:29 490K
20260504T12Z_MSC_GDPS_TotalCloudCover_Sfc_LatLon0.15_PT069H.grib2 2026-05-04 16:29 833K
20260504T12Z_MSC_GDPS_TotalTotalsIndex_Sfc_LatLon0.15_PT069H.grib2 2026-05-04 16:29 6.2M
20260504T12Z_MSC_GDPS_UVIndex-ClearSky_Sfc_LatLon0.15_PT069H.grib2 2026-05-04 17:17 1.1M
20260504T12Z_MSC_GDPS_UVIndex_Sfc_LatLon0.15_PT069H.grib2 2026-05-04 17:17 1.5M
20260504T12Z_MSC_GDPS_UpwardLongwaveRadiationFlux_NTAtm_LatLon0.15_PT069H.grib2 2026-05-04 16:29 840K
20260504T12Z_MSC_GDPS_VerticalVelocity_IsbL-0200_LatLon0.15_PT069H.grib2 2026-05-04 16:29 1.2M
20260504T12Z_MSC_GDPS_VerticalVelocity_IsbL-0250_LatLon0.15_PT069H.grib2 2026-05-04 16:29 1.0M
20260504T12Z_MSC_GDPS_VerticalVelocity_IsbL-0500_LatLon0.15_PT069H.grib2 2026-05-04 16:29 1.0M
20260504T12Z_MSC_GDPS_VerticalVelocity_IsbL-0600_LatLon0.15_PT069H.grib2 2026-05-04 16:29 1.1M
20260504T12Z_MSC_GDPS_VerticalVelocity_IsbL-0700_LatLon0.15_PT069H.grib2 2026-05-04 16:29 1.1M
20260504T12Z_MSC_GDPS_VerticalVelocity_IsbL-0850_LatLon0.15_PT069H.grib2 2026-05-04 16:29 1.6M
20260504T12Z_MSC_GDPS_WindChill_Sfc_LatLon0.15_PT069H.grib2 2026-05-04 16:29 5.3M
20260504T12Z_MSC_GDPS_WindDir_AGL-10m_LatLon0.15_PT069H.grib2 2026-05-04 16:29 1.3M
20260504T12Z_MSC_GDPS_WindDir_AGL-120m_LatLon0.15_PT069H.grib2 2026-05-04 16:29 1.3M
20260504T12Z_MSC_GDPS_WindDir_AGL-40m_LatLon0.15_PT069H.grib2 2026-05-04 16:29 1.4M
20260504T12Z_MSC_GDPS_WindDir_AGL-80m_LatLon0.15_PT069H.grib2 2026-05-04 16:29 1.3M
20260504T12Z_MSC_GDPS_WindDir_IsbL-0001_LatLon0.15_PT069H.grib2 2026-05-04 16:29 670K
20260504T12Z_MSC_GDPS_WindDir_IsbL-0005_LatLon0.15_PT069H.grib2 2026-05-04 16:29 825K
20260504T12Z_MSC_GDPS_WindDir_IsbL-0010_LatLon0.15_PT069H.grib2 2026-05-04 16:29 840K
20260504T12Z_MSC_GDPS_WindDir_IsbL-0020_LatLon0.15_PT069H.grib2 2026-05-04 16:29 929K
20260504T12Z_MSC_GDPS_WindDir_IsbL-0030_LatLon0.15_PT069H.grib2 2026-05-04 16:29 925K
20260504T12Z_MSC_GDPS_WindDir_IsbL-0050_LatLon0.15_PT069H.grib2 2026-05-04 16:29 933K
20260504T12Z_MSC_GDPS_WindDir_IsbL-0100_LatLon0.15_PT069H.grib2 2026-05-04 16:29 1.0M
20260504T12Z_MSC_GDPS_WindDir_IsbL-0150_LatLon0.15_PT069H.grib2 2026-05-04 16:29 1.0M
20260504T12Z_MSC_GDPS_WindDir_IsbL-0175_LatLon0.15_PT069H.grib2 2026-05-04 16:29 1.1M
20260504T12Z_MSC_GDPS_WindDir_IsbL-0200_LatLon0.15_PT069H.grib2 2026-05-04 16:29 1.1M
20260504T12Z_MSC_GDPS_WindDir_IsbL-0225_LatLon0.15_PT069H.grib2 2026-05-04 16:29 1.1M
20260504T12Z_MSC_GDPS_WindDir_IsbL-0250_LatLon0.15_PT069H.grib2 2026-05-04 16:29 1.1M
20260504T12Z_MSC_GDPS_WindDir_IsbL-0275_LatLon0.15_PT069H.grib2 2026-05-04 16:29 1.2M
20260504T12Z_MSC_GDPS_WindDir_IsbL-0300_LatLon0.15_PT069H.grib2 2026-05-04 16:29 1.2M
20260504T12Z_MSC_GDPS_WindDir_IsbL-0350_LatLon0.15_PT069H.grib2 2026-05-04 16:29 1.2M
20260504T12Z_MSC_GDPS_WindDir_IsbL-0400_LatLon0.15_PT069H.grib2 2026-05-04 16:29 1.3M
20260504T12Z_MSC_GDPS_WindDir_IsbL-0450_LatLon0.15_PT069H.grib2 2026-05-04 16:29 1.3M
20260504T12Z_MSC_GDPS_WindDir_IsbL-0500_LatLon0.15_PT069H.grib2 2026-05-04 16:29 1.4M
20260504T12Z_MSC_GDPS_WindDir_IsbL-0550_LatLon0.15_PT069H.grib2 2026-05-04 16:29 1.4M
20260504T12Z_MSC_GDPS_WindDir_IsbL-0600_LatLon0.15_PT069H.grib2 2026-05-04 16:29 1.4M
20260504T12Z_MSC_GDPS_WindDir_IsbL-0650_LatLon0.15_PT069H.grib2 2026-05-04 16:29 1.5M
20260504T12Z_MSC_GDPS_WindDir_IsbL-0700_LatLon0.15_PT069H.grib2 2026-05-04 16:29 1.6M
20260504T12Z_MSC_GDPS_WindDir_IsbL-0750_LatLon0.15_PT069H.grib2 2026-05-04 16:29 1.7M
20260504T12Z_MSC_GDPS_WindDir_IsbL-0800_LatLon0.15_PT069H.grib2 2026-05-04 16:29 1.8M
20260504T12Z_MSC_GDPS_WindDir_IsbL-0850_LatLon0.15_PT069H.grib2 2026-05-04 16:29 1.9M
20260504T12Z_MSC_GDPS_WindDir_IsbL-0875_LatLon0.15_PT069H.grib2 2026-05-04 16:29 1.9M
20260504T12Z_MSC_GDPS_WindDir_IsbL-0900_LatLon0.15_PT069H.grib2 2026-05-04 16:29 1.9M
20260504T12Z_MSC_GDPS_WindDir_IsbL-0925_LatLon0.15_PT069H.grib2 2026-05-04 16:29 1.9M
20260504T12Z_MSC_GDPS_WindDir_IsbL-0950_LatLon0.15_PT069H.grib2 2026-05-04 16:29 1.9M
20260504T12Z_MSC_GDPS_WindDir_IsbL-0970_LatLon0.15_PT069H.grib2 2026-05-04 16:29 2.0M
20260504T12Z_MSC_GDPS_WindDir_IsbL-0985_LatLon0.15_PT069H.grib2 2026-05-04 16:29 2.0M
20260504T12Z_MSC_GDPS_WindDir_IsbL-1000_LatLon0.15_PT069H.grib2 2026-05-04 16:29 2.0M
20260504T12Z_MSC_GDPS_WindDir_IsbL-1015_LatLon0.15_PT069H.grib2 2026-05-04 16:29 2.0M
20260504T12Z_MSC_GDPS_WindGust-Max_AGL-10m_LatLon0.15_PT069H.grib2 2026-05-04 16:29 1.8M
20260504T12Z_MSC_GDPS_WindGust-Min_AGL-10m_LatLon0.15_PT069H.grib2 2026-05-04 16:29 2.2M
20260504T12Z_MSC_GDPS_WindGust_AGL-10m_LatLon0.15_PT069H.grib2 2026-05-04 16:29 2.2M
20260504T12Z_MSC_GDPS_WindSpeed_AGL-10m_LatLon0.15_PT069H.grib2 2026-05-04 16:29 1.1M
20260504T12Z_MSC_GDPS_WindSpeed_AGL-120m_LatLon0.15_PT069H.grib2 2026-05-04 16:29 1.2M
20260504T12Z_MSC_GDPS_WindSpeed_AGL-40m_LatLon0.15_PT069H.grib2 2026-05-04 16:29 1.2M
20260504T12Z_MSC_GDPS_WindSpeed_AGL-80m_LatLon0.15_PT069H.grib2 2026-05-04 16:29 1.2M
20260504T12Z_MSC_GDPS_WindSpeed_IsbL-0001_LatLon0.15_PT069H.grib2 2026-05-04 16:29 652K
20260504T12Z_MSC_GDPS_WindSpeed_IsbL-0005_LatLon0.15_PT069H.grib2 2026-05-04 16:29 698K
20260504T12Z_MSC_GDPS_WindSpeed_IsbL-0010_LatLon0.15_PT069H.grib2 2026-05-04 16:29 630K
20260504T12Z_MSC_GDPS_WindSpeed_IsbL-0020_LatLon0.15_PT069H.grib2 2026-05-04 16:29 666K
20260504T12Z_MSC_GDPS_WindSpeed_IsbL-0030_LatLon0.15_PT069H.grib2 2026-05-04 16:29 864K
20260504T12Z_MSC_GDPS_WindSpeed_IsbL-0050_LatLon0.15_PT069H.grib2 2026-05-04 16:29 898K
20260504T12Z_MSC_GDPS_WindSpeed_IsbL-0100_LatLon0.15_PT069H.grib2 2026-05-04 16:29 1.1M
20260504T12Z_MSC_GDPS_WindSpeed_IsbL-0150_LatLon0.15_PT069H.grib2 2026-05-04 16:29 1.0M
20260504T12Z_MSC_GDPS_WindSpeed_IsbL-0175_LatLon0.15_PT069H.grib2 2026-05-04 16:29 1.0M
20260504T12Z_MSC_GDPS_WindSpeed_IsbL-0200_LatLon0.15_PT069H.grib2 2026-05-04 16:29 1.1M
20260504T12Z_MSC_GDPS_WindSpeed_IsbL-0225_LatLon0.15_PT069H.grib2 2026-05-04 16:29 1.1M
20260504T12Z_MSC_GDPS_WindSpeed_IsbL-0250_LatLon0.15_PT069H.grib2 2026-05-04 16:29 1.1M
20260504T12Z_MSC_GDPS_WindSpeed_IsbL-0275_LatLon0.15_PT069H.grib2 2026-05-04 16:29 1.1M
20260504T12Z_MSC_GDPS_WindSpeed_IsbL-0300_LatLon0.15_PT069H.grib2 2026-05-04 16:29 1.1M
20260504T12Z_MSC_GDPS_WindSpeed_IsbL-0350_LatLon0.15_PT069H.grib2 2026-05-04 16:29 1.1M
20260504T12Z_MSC_GDPS_WindSpeed_IsbL-0400_LatLon0.15_PT069H.grib2 2026-05-04 16:29 1.1M
20260504T12Z_MSC_GDPS_WindSpeed_IsbL-0450_LatLon0.15_PT069H.grib2 2026-05-04 16:29 1.1M
20260504T12Z_MSC_GDPS_WindSpeed_IsbL-0500_LatLon0.15_PT069H.grib2 2026-05-04 16:29 1.1M
20260504T12Z_MSC_GDPS_WindSpeed_IsbL-0550_LatLon0.15_PT069H.grib2 2026-05-04 16:29 1.1M
20260504T12Z_MSC_GDPS_WindSpeed_IsbL-0600_LatLon0.15_PT069H.grib2 2026-05-04 16:29 1.1M
20260504T12Z_MSC_GDPS_WindSpeed_IsbL-0650_LatLon0.15_PT069H.grib2 2026-05-04 16:29 1.2M
20260504T12Z_MSC_GDPS_WindSpeed_IsbL-0700_LatLon0.15_PT069H.grib2 2026-05-04 16:29 1.5M
20260504T12Z_MSC_GDPS_WindSpeed_IsbL-0750_LatLon0.15_PT069H.grib2 2026-05-04 16:29 1.6M
20260504T12Z_MSC_GDPS_WindSpeed_IsbL-0800_LatLon0.15_PT069H.grib2 2026-05-04 16:29 1.6M
20260504T12Z_MSC_GDPS_WindSpeed_IsbL-0850_LatLon0.15_PT069H.grib2 2026-05-04 16:29 1.7M
20260504T12Z_MSC_GDPS_WindSpeed_IsbL-0875_LatLon0.15_PT069H.grib2 2026-05-04 16:29 1.8M
20260504T12Z_MSC_GDPS_WindSpeed_IsbL-0900_LatLon0.15_PT069H.grib2 2026-05-04 16:29 1.8M
20260504T12Z_MSC_GDPS_WindSpeed_IsbL-0925_LatLon0.15_PT069H.grib2 2026-05-04 16:29 1.9M
20260504T12Z_MSC_GDPS_WindSpeed_IsbL-0950_LatLon0.15_PT069H.grib2 2026-05-04 16:29 1.9M
20260504T12Z_MSC_GDPS_WindSpeed_IsbL-0970_LatLon0.15_PT069H.grib2 2026-05-04 16:29 1.9M
20260504T12Z_MSC_GDPS_WindSpeed_IsbL-0985_LatLon0.15_PT069H.grib2 2026-05-04 16:29 1.8M
20260504T12Z_MSC_GDPS_WindSpeed_IsbL-1000_LatLon0.15_PT069H.grib2 2026-05-04 16:29 1.8M
20260504T12Z_MSC_GDPS_WindSpeed_IsbL-1015_LatLon0.15_PT069H.grib2 2026-05-04 16:29 1.8M
20260504T12Z_MSC_GDPS_WindU_AGL-10m_LatLon0.15_PT069H.grib2 2026-05-04 16:29 1.3M
20260504T12Z_MSC_GDPS_WindU_AGL-120m_LatLon0.15_PT069H.grib2 2026-05-04 16:29 955K
20260504T12Z_MSC_GDPS_WindU_AGL-40m_LatLon0.15_PT069H.grib2 2026-05-04 16:29 952K
20260504T12Z_MSC_GDPS_WindU_AGL-80m_LatLon0.15_PT069H.grib2 2026-05-04 16:29 956K
20260504T12Z_MSC_GDPS_WindU_IsbL-0001_LatLon0.15_PT069H.grib2 2026-05-04 16:29 507K
20260504T12Z_MSC_GDPS_WindU_IsbL-0005_LatLon0.15_PT069H.grib2 2026-05-04 16:29 696K
20260504T12Z_MSC_GDPS_WindU_IsbL-0010_LatLon0.15_PT069H.grib2 2026-05-04 16:29 706K
20260504T12Z_MSC_GDPS_WindU_IsbL-0020_LatLon0.15_PT069H.grib2 2026-05-04 16:29 733K
20260504T12Z_MSC_GDPS_WindU_IsbL-0030_LatLon0.15_PT069H.grib2 2026-05-04 16:29 743K
20260504T12Z_MSC_GDPS_WindU_IsbL-0050_LatLon0.15_PT069H.grib2 2026-05-04 16:29 765K
20260504T12Z_MSC_GDPS_WindU_IsbL-0100_LatLon0.15_PT069H.grib2 2026-05-04 16:29 857K
20260504T12Z_MSC_GDPS_WindU_IsbL-0150_LatLon0.15_PT069H.grib2 2026-05-04 16:29 1.0M
20260504T12Z_MSC_GDPS_WindU_IsbL-0175_LatLon0.15_PT069H.grib2 2026-05-04 16:29 1.0M
20260504T12Z_MSC_GDPS_WindU_IsbL-0200_LatLon0.15_PT069H.grib2 2026-05-04 16:29 845K
20260504T12Z_MSC_GDPS_WindU_IsbL-0225_LatLon0.15_PT069H.grib2 2026-05-04 16:29 853K
20260504T12Z_MSC_GDPS_WindU_IsbL-0250_LatLon0.15_PT069H.grib2 2026-05-04 16:29 853K
20260504T12Z_MSC_GDPS_WindU_IsbL-0275_LatLon0.15_PT069H.grib2 2026-05-04 16:29 937K
20260504T12Z_MSC_GDPS_WindU_IsbL-0300_LatLon0.15_PT069H.grib2 2026-05-04 16:29 929K
20260504T12Z_MSC_GDPS_WindU_IsbL-0350_LatLon0.15_PT069H.grib2 2026-05-04 16:29 944K
20260504T12Z_MSC_GDPS_WindU_IsbL-0400_LatLon0.15_PT069H.grib2 2026-05-04 16:29 888K
20260504T12Z_MSC_GDPS_WindU_IsbL-0450_LatLon0.15_PT069H.grib2 2026-05-04 16:29 889K
20260504T12Z_MSC_GDPS_WindU_IsbL-0500_LatLon0.15_PT069H.grib2 2026-05-04 16:29 1.1M
20260504T12Z_MSC_GDPS_WindU_IsbL-0550_LatLon0.15_PT069H.grib2 2026-05-04 16:29 1.1M
20260504T12Z_MSC_GDPS_WindU_IsbL-0600_LatLon0.15_PT069H.grib2 2026-05-04 16:29 1.1M
20260504T12Z_MSC_GDPS_WindU_IsbL-0650_LatLon0.15_PT069H.grib2 2026-05-04 16:29 1.2M
20260504T12Z_MSC_GDPS_WindU_IsbL-0700_LatLon0.15_PT069H.grib2 2026-05-04 16:29 1.2M
20260504T12Z_MSC_GDPS_WindU_IsbL-0750_LatLon0.15_PT069H.grib2 2026-05-04 16:29 1.3M
20260504T12Z_MSC_GDPS_WindU_IsbL-0800_LatLon0.15_PT069H.grib2 2026-05-04 16:29 1.4M
20260504T12Z_MSC_GDPS_WindU_IsbL-0850_LatLon0.15_PT069H.grib2 2026-05-04 16:29 1.4M
20260504T12Z_MSC_GDPS_WindU_IsbL-0875_LatLon0.15_PT069H.grib2 2026-05-04 16:29 1.5M
20260504T12Z_MSC_GDPS_WindU_IsbL-0900_LatLon0.15_PT069H.grib2 2026-05-04 16:29 1.5M
20260504T12Z_MSC_GDPS_WindU_IsbL-0925_LatLon0.15_PT069H.grib2 2026-05-04 16:29 1.4M
20260504T12Z_MSC_GDPS_WindU_IsbL-0950_LatLon0.15_PT069H.grib2 2026-05-04 16:29 1.4M
20260504T12Z_MSC_GDPS_WindU_IsbL-0970_LatLon0.15_PT069H.grib2 2026-05-04 16:29 1.4M
20260504T12Z_MSC_GDPS_WindU_IsbL-0985_LatLon0.15_PT069H.grib2 2026-05-04 16:29 1.4M
20260504T12Z_MSC_GDPS_WindU_IsbL-1000_LatLon0.15_PT069H.grib2 2026-05-04 16:29 1.4M
20260504T12Z_MSC_GDPS_WindU_IsbL-1015_LatLon0.15_PT069H.grib2 2026-05-04 16:29 1.3M
20260504T12Z_MSC_GDPS_WindV_AGL-10m_LatLon0.15_PT069H.grib2 2026-05-04 16:29 1.3M
20260504T12Z_MSC_GDPS_WindV_AGL-120m_LatLon0.15_PT069H.grib2 2026-05-04 16:29 957K
20260504T12Z_MSC_GDPS_WindV_AGL-40m_LatLon0.15_PT069H.grib2 2026-05-04 16:29 953K
20260504T12Z_MSC_GDPS_WindV_AGL-80m_LatLon0.15_PT069H.grib2 2026-05-04 16:29 957K
20260504T12Z_MSC_GDPS_WindV_IsbL-0001_LatLon0.15_PT069H.grib2 2026-05-04 16:29 564K
20260504T12Z_MSC_GDPS_WindV_IsbL-0005_LatLon0.15_PT069H.grib2 2026-05-04 16:29 767K
20260504T12Z_MSC_GDPS_WindV_IsbL-0010_LatLon0.15_PT069H.grib2 2026-05-04 16:29 797K
20260504T12Z_MSC_GDPS_WindV_IsbL-0020_LatLon0.15_PT069H.grib2 2026-05-04 16:29 851K
20260504T12Z_MSC_GDPS_WindV_IsbL-0030_LatLon0.15_PT069H.grib2 2026-05-04 16:29 855K
20260504T12Z_MSC_GDPS_WindV_IsbL-0050_LatLon0.15_PT069H.grib2 2026-05-04 16:29 899K
20260504T12Z_MSC_GDPS_WindV_IsbL-0100_LatLon0.15_PT069H.grib2 2026-05-04 16:29 1.0M
20260504T12Z_MSC_GDPS_WindV_IsbL-0150_LatLon0.15_PT069H.grib2 2026-05-04 16:29 1.0M
20260504T12Z_MSC_GDPS_WindV_IsbL-0175_LatLon0.15_PT069H.grib2 2026-05-04 16:29 1.0M
20260504T12Z_MSC_GDPS_WindV_IsbL-0200_LatLon0.15_PT069H.grib2 2026-05-04 16:29 840K
20260504T12Z_MSC_GDPS_WindV_IsbL-0225_LatLon0.15_PT069H.grib2 2026-05-04 16:29 906K
20260504T12Z_MSC_GDPS_WindV_IsbL-0250_LatLon0.15_PT069H.grib2 2026-05-04 16:29 907K
20260504T12Z_MSC_GDPS_WindV_IsbL-0275_LatLon0.15_PT069H.grib2 2026-05-04 16:29 931K
20260504T12Z_MSC_GDPS_WindV_IsbL-0300_LatLon0.15_PT069H.grib2 2026-05-04 16:29 923K
20260504T12Z_MSC_GDPS_WindV_IsbL-0350_LatLon0.15_PT069H.grib2 2026-05-04 16:29 936K
20260504T12Z_MSC_GDPS_WindV_IsbL-0400_LatLon0.15_PT069H.grib2 2026-05-04 16:29 880K
20260504T12Z_MSC_GDPS_WindV_IsbL-0450_LatLon0.15_PT069H.grib2 2026-05-04 16:29 877K
20260504T12Z_MSC_GDPS_WindV_IsbL-0500_LatLon0.15_PT069H.grib2 2026-05-04 16:29 1.1M
20260504T12Z_MSC_GDPS_WindV_IsbL-0550_LatLon0.15_PT069H.grib2 2026-05-04 16:29 1.1M
20260504T12Z_MSC_GDPS_WindV_IsbL-0600_LatLon0.15_PT069H.grib2 2026-05-04 16:29 1.1M
20260504T12Z_MSC_GDPS_WindV_IsbL-0650_LatLon0.15_PT069H.grib2 2026-05-04 16:29 1.2M
20260504T12Z_MSC_GDPS_WindV_IsbL-0700_LatLon0.15_PT069H.grib2 2026-05-04 16:29 1.2M
20260504T12Z_MSC_GDPS_WindV_IsbL-0750_LatLon0.15_PT069H.grib2 2026-05-04 16:29 1.3M
20260504T12Z_MSC_GDPS_WindV_IsbL-0800_LatLon0.15_PT069H.grib2 2026-05-04 16:29 1.3M
20260504T12Z_MSC_GDPS_WindV_IsbL-0850_LatLon0.15_PT069H.grib2 2026-05-04 16:29 1.4M
20260504T12Z_MSC_GDPS_WindV_IsbL-0875_LatLon0.15_PT069H.grib2 2026-05-04 16:29 1.4M
20260504T12Z_MSC_GDPS_WindV_IsbL-0900_LatLon0.15_PT069H.grib2 2026-05-04 16:29 1.4M
20260504T12Z_MSC_GDPS_WindV_IsbL-0925_LatLon0.15_PT069H.grib2 2026-05-04 16:29 1.4M
20260504T12Z_MSC_GDPS_WindV_IsbL-0950_LatLon0.15_PT069H.grib2 2026-05-04 16:29 1.4M
20260504T12Z_MSC_GDPS_WindV_IsbL-0970_LatLon0.15_PT069H.grib2 2026-05-04 16:29 1.4M
20260504T12Z_MSC_GDPS_WindV_IsbL-0985_LatLon0.15_PT069H.grib2 2026-05-04 16:29 1.4M
20260504T12Z_MSC_GDPS_WindV_IsbL-1000_LatLon0.15_PT069H.grib2 2026-05-04 16:29 1.4M
20260504T12Z_MSC_GDPS_WindV_IsbL-1015_LatLon0.15_PT069H.grib2 2026-05-04 16:29 1.3M